Lapse_Rate
6.7 6.3 6.5 6.5 6.4 6.5 6.6 6.0 5.8 6.0 5.9 5.7 5.6 5.5 5.5 5.6 5.4 5.4 5.1 5.2 5.0 5.0 4.8 4.6 4.2 4.1 4.1 4.5 4.4 4.4 4.5 4.6 4.5 4.9 5.0 5.7 6.7 7.4 7.7 7.8 7.6 7.5 7.4
6.9 6.7 6.4 6.4 6.3 6.3 6.2 5.9 5.8 5.8 5.5 5.4 5.4 5.4 5.5 5.4 5.3 5.2 5.0 4.8 4.8 4.7 4.4 4.5 4.3 4.3 4.5 4.4 4.5 4.6 4.7 4.6 4.4 4.5 5.3 6.2 6.9 7.5 7.6 7.6 7.7 7.5 7.3
7.4 7.4 6.7 6.0 6.4 6.2 6.6 6.0 5.8 5.6 5.4 5.3 5.3 5.4 5.3 5.2 5.2 4.8 4.8 4.8 4.7 4.4 4.3 4.4 4.4 4.5 4.5 4.6 4.7 4.9 4.9 4.7 4.8 5.0 5.4 6.3 6.6 6.8 6.8 7.1 7.4 7.4 7.2
7.1 7.3 7.1 6.6 6.2 6.3 6.3 6.1 5.7 5.5 5.3 5.3 5.3 5.2 5.1 5.1 4.8 4.5 4.8 4.6 4.5 4.3 4.4 4.5 4.5 4.5 4.6 4.7 4.9 5.0 4.8 4.7 4.8 5.4 6.3 6.5 6.6 6.6 6.8 6.9 7.2 7.0 7.1
6.8 6.8 6.2 6.1 5.5 5.9 5.9 5.9 5.6 5.4 5.2 5.2 5.1 4.9 4.9 4.9 4.2 4.5 4.5 4.4 4.3 4.5 4.7 4.7 4.7 4.7 4.8 4.8 4.9 4.9 4.9 5.0 5.5 6.0 6.3 6.5 6.6 6.9 6.9 7.0 6.9 7.1 7.4
6.7 6.0 5.7 5.9 5.9 5.8 6.2 5.5 5.5 5.2 4.9 4.8 4.5 4.7 4.7 4.5 4.1 4.5 4.3 4.3 4.5 4.5 4.7 4.7 4.9 5.0 5.0 5.1 5.0 4.8 5.0 5.3 5.9 6.1 6.4 6.5 6.9 6.9 7.1 7.2 7.3 7.4 7.7
6.6 5.7 5.9 5.8 6.0 6.0 5.4 5.6 5.2 4.8 4.6 4.2 4.4 4.7 4.5 4.3 4.3 4.3 4.3 4.3 4.4 4.8 4.8 4.8 4.9 5.0 5.2 5.1 4.8 4.9 5.4 5.7 5.9 6.2 6.4 6.6 6.8 6.9 7.0 7.3 7.4 7.5 7.9
6.4 5.7 5.7 5.9 5.8 5.7 5.6 5.3 4.9 4.5 4.3 4.4 4.7 4.3 4.3 4.3 4.3 4.2 4.3 4.4 4.7 4.8 5.0 4.9 4.9 5.1 5.1 4.8 4.6 4.9 5.6 6.0 6.2 6.3 6.4 6.6 6.7 7.0 7.0 7.1 7.4 7.5 7.8
6.7 6.4 6.5 6.0 5.7 5.6 5.4 4.8 4.4 4.3 4.5 4.6 4.2 4.0 4.1 4.2 4.2 4.2 4.1 4.5 4.7 4.9 4.8 4.9 4.9 5.2 5.0 4.5 4.7 5.3 6.3 6.3 6.4 6.3 6.4 6.4 6.4 6.7 6.7 6.9 7.2 7.4 7.7
6.8 6.8 6.5 5.6 5.5 5.3 4.7 4.4 4.1 4.4 4.3 4.0 3.8 3.8 4.2 4.2 4.2 4.1 4.4 4.6 4.7 4.8 5.1 5.1 5.2 5.1 4.6 4.7 4.9 5.7 6.5 6.4 6.5 6.6 6.6 6.6 6.7 6.8 6.7 6.7 6.8 7.4 7.4
6.4 6.4 6.4 5.1 4.9 4.3 4.0 3.9 4.4 4.0 3.9 3.6 3.5 3.9 4.1 4.1 3.9 4.2 4.4 4.7 4.9 5.0 5.2 5.2 5.2 4.8 4.8 5.1 5.6 6.1 6.3 6.4 6.5 6.5 6.5 6.6 6.7 6.7 6.6 6.4 6.4 6.7 7.1
6.2 6.0 5.1 4.3 4.3 4.1 4.3 4.4 3.9 3.8 3.7 3.4 3.6 4.0 4.0 3.9 4.1 4.4 4.5 4.6 4.8 5.0 5.2 5.2 5.0 4.8 5.0 5.6 6.2 6.2 6.3 6.3 6.4 6.4 6.4 6.4 6.4 6.5 6.2 6.1 6.1 6.3 6.7
5.2 4.7 4.3 4.2 4.2 4.5 3.8 3.8 3.8 3.5 3.6 3.3 4.0 3.8 3.8 4.0 4.2 4.4 4.5 4.7 4.8 5.1 5.3 5.1 5.0 5.1 5.6 6.3 6.5 6.5 6.5 6.4 6.4 6.4 6.4 6.3 6.3 6.1 6.0 5.8 5.9 6.0 6.2
4.7 4.5 4.1 4.2 3.7 3.2 3.4 3.2 3.3 3.5 2.9 3.3 3.7 3.8 3.8 4.2 4.5 4.6 4.8 4.9 5.1 5.3 5.3 5.4 5.5 5.8 6.4 6.5 6.5 6.6 6.6 6.4 6.3 6.3 6.4 6.3 6.1 6.0 6.0 5.8 5.9 6.0 5.9
4.5 4.1 3.9 3.1 2.8 3.0 3.0 3.3 3.7 3.0 3.3 3.6 3.5 3.7 4.1 4.3 4.5 4.7 4.8 5.0 5.2 5.3 5.3 5.8 6.1 6.6 6.6 6.6 6.7 6.8 6.7 6.6 6.4 6.3 6.4 6.4 6.2 6.0 6.0 5.7 5.7 5.8 5.9
3.9 3.5 2.8 2.6 2.8 3.0 3.3 3.8 3.3 2.8 3.5 3.5 3.8 3.9 4.2 4.4 4.6 4.8 4.9 5.2 5.3 5.3 5.6 6.0 6.4 6.8 6.9 6.8 6.8 6.9 6.8 6.7 6.5 6.3 6.4 6.4 6.2 6.0 5.9 5.7 5.8 5.9 5.9
3.6 2.9 2.6 2.8 3.2 3.6 3.7 2.7 3.0 3.4 3.5 3.7 4.0 4.2 4.4 4.6 4.7 4.8 5.1 5.3 5.5 5.8 6.1 6.4 6.8 7.1 7.1 7.0 7.0 7.0 6.9 6.7 6.6 6.4 6.4 6.4 6.3 6.1 5.9 5.7 5.7 5.9 5.8
2.6 2.7 3.0 3.3 3.4 3.0 2.8 3.0 3.4 3.6 3.7 3.9 4.1 4.4 4.6 4.6 4.7 5.0 5.2 5.5 5.8 6.2 6.5 6.7 6.9 7.1 7.1 7.2 7.2 7.1 7.0 6.9 6.7 6.6 6.3 6.4 6.4 6.1 5.9 5.7 5.7 5.7 5.7
3.0 3.4 3.7 3.3 2.5 2.6 3.0 3.4 3.6 3.8 3.9 4.2 4.5 4.6 4.4 4.6 5.0 5.0 5.4 5.6 6.0 6.4 6.6 6.9 7.0 7.1 7.0 7.2 7.3 7.1 7.0 6.9 6.8 6.8 6.4 6.4 6.3 6.1 6.0 5.7 5.6 5.6 5.5
3.4 3.0 2.5 2.8 2.8 3.3 3.6 3.8 3.9 4.0 4.2 4.3 4.5 4.5 4.6 4.8 5.0 5.2 5.5 5.8 6.1 6.3 6.8 6.9 7.0 7.0 7.0 7.1 7.2 7.0 7.0 7.0 6.9 6.8 6.6 6.3 6.3 6.1 6.1 5.7 5.6 5.7 5.6
2.6 2.9 3.1 3.3 3.6 3.8 3.8 3.9 4.0 4.1 4.2 4.4 4.6 4.6 4.6 5.0 5.5 5.8 6.0 6.3 6.4 6.6 6.8 6.8 6.9 6.8 6.9 7.0 7.0 6.9 6.8 6.9 6.9 6.8 6.6 6.3 6.2 6.1 6.0 5.8 5.6 5.6 5.6
3.1 3.4 3.7 3.9 3.9 3.9 3.9 4.0 4.1 4.3 4.5 4.6 4.8 5.1 5.4 5.7 5.9 6.1 6.2 6.5 6.6 6.7 6.7 6.7 6.8 6.6 6.7 6.9 6.9 6.8 6.7 6.8 6.8 6.7 6.6 6.3 6.1 6.0 5.9 5.9 5.6 5.6 5.6
3.8 4.0 4.1 4.0 4.0 4.0 4.0 4.2 4.3 4.5 4.7 5.1 5.5 5.8 6.0 6.2 6.4 6.5 6.7 6.7 6.6 6.5 6.5 6.5 6.5 6.5 6.5 6.7 6.7 6.6 6.6 6.6 6.6 6.6 6.5 6.4 6.2 6.0 6.0 5.8 5.7 5.4 5.4
4.0 4.1 3.9 3.9 4.0 4.1 4.4 4.6 4.7 5.0 5.3 5.6 5.9 6.2 6.3 6.2 6.4 6.3 6.3 6.3 6.3 6.3 6.3 6.3 6.3 6.4 6.6 6.6 6.6 6.4 6.4 6.4 6.4 6.5 6.4 6.4 6.2 6.0 5.9 5.8 5.7 5.5 5.3
4.0 4.1 4.1 4.3 4.5 4.7 4.8 5.1 5.3 5.5 5.7 6.1 6.3 6.3 6.3 6.2 6.1 6.0 6.0 6.0 6.0 6.0 6.0 6.1 6.1 6.2 6.4 6.4 6.4 6.3 6.4 6.4 6.3 6.3 6.3 6.3 6.2 6.1 5.9 5.9 5.8 5.7 5.4
4.3 4.5 4.7 4.9 5.1 5.2 5.5 5.7 5.8 5.8 5.9 6.0 6.1 6.1 6.0 6.0 5.9 5.8 5.8 5.8 5.7 5.7 5.8 5.9 6.0 6.1 6.1 6.3 6.1 6.3 6.3 6.4 6.3 6.2 6.2 6.2 6.1 6.1 6.0 5.9 5.9 5.8 5.6
Wind_Speed
10 10 12 9 11 12 10 9 10 7 9 7 7 7 6 5 3 3 2 2 2 3 4 4 5 5 3 4 4 4 4 3 7 13 9 10 15 13 16 23 24 24 25
16 13 13 12 14 12 12 10 10 8 7 7 6 6 6 5 4 4 2 5 4 4 4 5 5 5 6 6 5 7 6 6 6 13 14 11 12 14 15 14 11 20 22
17 17 13 14 14 13 12 12 9 10 7 7 7 6 6 5 4 5 2 3 4 5 5 6 6 7 6 7 8 7 7 7 8 9 13 10 12 12 14 11 12 14 19
17 17 17 15 16 13 13 12 9 9 9 7 7 6 5 5 5 5 6 5 4 5 5 6 6 7 8 8 7 7 8 11 10 10 11 12 12 11 11 12 12 11 12
15 16 16 14 13 14 14 11 9 9 8 9 7 6 5 5 5 6 5 4 5 5 5 5 6 8 11 7 5 8 12 9 9 11 11 12 10 11 11 10 11 12 13
16 15 14 15 14 14 12 10 10 8 8 7 7 7 6 7 11 10 5 3 4 4 4 4 5 8 5 12 12 9 6 10 12 10 10 11 13 10 10 10 11 10 11
16 16 15 16 16 14 13 13 11 10 9 7 8 6 11 9 10 8 4 3 4 2 3 5 4 4 7 7 12 9 10 12 11 11 13 12 12 13 13 13 11 11 11
18 18 16 16 15 14 13 13 10 10 10 9 7 7 8 8 10 7 1 5 3 3 4 5 5 6 6 8 8 7 8 9 9 8 10 12 12 13 13 13 14 12 10
19 18 17 16 15 14 13 13 11 10 8 7 8 7 6 7 11 7 3 2 3 4 4 5 5 6 9 14 7 11 12 10 12 16 19 21 25 26 20 10 7 8 11
19 19 17 15 15 14 13 11 9 9 9 6 8 6 8 10 11 7 0 2 2 2 4 5 6 7 11 13 11 10 11 11 9 11 10 10 16 14 16 7 7 7 7
17 17 16 15 13 13 11 10 8 9 8 6 7 7 7 10 8 9 5 1 2 2 2 2 3 10 19 19 17 9 10 11 11 9 8 6 5 5 5 4 6 5 7
18 16 16 14 11 10 12 9 9 9 8 7 6 5 4 6 8 8 7 2 2 2 3 2 5 18 18 18 14 11 12 8 6 6 7 6 7 7 6 6 7 6 7
18 16 12 11 11 11 11 10 8 9 7 5 5 5 4 2 3 8 6 3 4 2 2 5 15 15 15 8 9 10 8 5 6 6 6 6 6 7 5 6 7 8 8
17 14 11 10 9 7 6 5 5 7 7 6 4 4 4 2 2 3 3 2 4 3 4 5 7 7 6 8 5 6 5 5 6 6 6 6 6 5 5 4 5 5 3
15 11 7 5 7 8 5 3 4 4 6 7 5 5 6 3 2 4 1 2 1 3 4 3 2 4 7 7 6 5 4 6 5 4 5 6 6 4 4 3 5 3 2
14 10 9 8 7 7 6 5 11 8 11 11 10 7 3 5 3 1 1 4 6 7 2 2 2 4 7 7 7 7 6 6 6 6 4 5 5 5 3 4 2 2 2
14 11 8 8 8 8 7 8 8 3 6 6 7 8 7 6 5 3 4 7 9 6 2 2 1 3 7 4 5 6 7 6 7 5 5 5 3 4 5 3 2 2 3
12 13 9 8 7 7 7 6 6 7 6 3 6 5 8 7 6 5 6 5 3 3 2 2 1 2 3 5 4 6 7 6 6 3 5 5 3 4 3 3 2 2 3
10 9 9 9 8 7 7 6 5 5 4 4 4 3 5 8 9 9 9 3 2 1 2 2 1 2 2 2 4 5 7 6 6 5 3 3 4 3 2 2 2 3 4
9 12 10 9 8 6 5 5 4 4 3 3 3 3 4 5 5 5 4 4 4 4 3 2 3 2 2 4 2 5 6 6 5 4 3 3 3 3 2 1 1 2 3
8 8 9 7 6 6 5 5 4 3 3 3 3 5 7 4 5 4 3 4 6 5 3 2 2 3 2 3 4 4 6 6 6 5 3 3 2 3 1 1 2 2 2
7 5 5 6 5 5 4 4 3 3 3 3 3 4 10 6 5 4 4 4 4 3 2 3 3 2 2 2 2 4 6 7 6 5 5 3 2 2 1 1 2 2 1
7 6 4 3 3 4 3 2 2 3 2 3 3 3 3 5 6 6 6 4 4 4 4 2 2 2 6 5 7 5 4 7 6 5 5 4 2 2 2 1 2 3 2
4 4 3 4 4 3 2 3 3 1 1 1 1 2 4 4 5 7 6 5 4 4 7 6 5 4 5 4 8 9 13 13 13 11 7 5 4 3 3 2 3 3 4
4 4 4 4 3 3 2 1 0 2 3 3 4 4 4 5 5 5 6 6 5 4 4 6 9 9 6 7 6 12 15 11 15 18 12 6 7 5 4 3 4 5 3
5 4 3 3 2 2 2 3 4 3 4 4 4 4 4 5 4 3 3 3 3 4 5 6 9 8 9 6 8 10 11 15 15 19 15 7 6 5 5 6 8 6 7
Wind_Direction
163 168 157 154 141 134 127 124 123 124 130 137 135 135 132 127 110 91 46 316 27 349 308 301 315 313 306 323 309 298 296 341 306 303 301 320 328 322 327 320 317 315 313
169 168 161 152 139 138 130 138 125 138 128 125 132 137 134 129 120 90 54 31 1 324 331 324 315 328 323 323 347 352 335 329 312 304 308 313 311 311 298 301 305 304 305
170 165 151 151 139 141 142 133 145 133 130 135 128 137 137 123 122 95 82 50 17 340 336 350 338 348 350 10 348 333 328 328 331 314 305 314 318 320 315 317 313 307 303
169 163 155 153 147 144 140 137 147 137 136 130 138 133 127 143 123 88 60 32 355 353 360 7 350 360 2 339 320 330 329 317 312 311 306 307 313 317 315 312 309 311 312
171 164 158 147 142 135 132 143 137 136 139 137 130 131 130 108 89 81 51 357 345 342 17 357 347 339 311 298 343 329 320 317 315 317 308 308 310 313 308 306 300 304 305
170 167 150 141 137 133 135 138 133 134 133 127 141 139 138 101 99 87 51 353 318 19 359 331 303 297 345 339 331 315 300 311 309 308 305 301 299 303 304 306 301 304 308
167 164 153 145 142 140 144 142 145 143 133 138 131 145 108 113 117 109 82 315 283 228 247 267 289 309 332 326 324 318 300 290 282 289 290 290 297 299 297 299 297 293 290
169 161 153 147 143 148 151 144 147 139 146 140 138 102 122 127 125 112 211 262 295 348 352 350 329 339 329 323 308 309 307 304 293 285 280 284 287 294 292 291 294 290 285
167 158 154 149 150 152 150 149 144 149 134 127 121 125 153 132 128 140 279 340 15 350 340 331 327 332 305 315 320 317 315 305 292 282 281 285 289 289 288 295 291 298 304
158 153 150 147 148 152 148 141 141 126 124 136 146 155 117 130 141 139 185 64 352 8 330 314 327 310 320 335 323 318 311 309 307 304 299 298 290 289 292 283 300 302 307
141 140 140 138 146 148 139 132 126 130 144 151 141 145 152 148 159 152 149 65 66 301 288 329 325 335 334 321 315 305 290 297 303 295 295 293 294 292 294 290 303 301 301
131 129 132 141 150 141 134 129 144 151 147 138 137 112 120 148 147 173 161 166 345 314 324 323 329 330 312 310 309 299 305 309 302 302 304 312 318 319 311 312 297 282 285
128 131 134 136 147 135 141 152 154 156 148 138 133 147 146 145 145 139 124 67 2 357 320 325 329 312 309 305 312 323 319 319 314 315 318 317 314 307 300 323 317 288 281
120 115 127 144 130 144 139 141 147 148 141 147 151 141 135 137 137 109 76 42 3 359 355 320 298 293 304 316 329 331 328 319 307 311 317 311 306 322 321 328 324 330 323
115 120 118 120 141 131 105 123 129 101 148 154 159 150 147 148 121 107 94 29 360 285 296 286 310 337 341 337 329 321 330 325 306 303 314 316 317 332 330 334 335 329 21
135 132 150 144 136 135 126 102 70 109 102 102 93 123 108 135 135 192 312 300 286 290 281 275 318 334 331 332 331 334 334 326 323 318 313 311 320 333 327 331 333 336 19
142 156 145 147 154 150 151 148 139 73 98 123 139 154 165 146 161 205 269 289 281 279 231 264 290 321 325 315 326 332 323 316 312 317 321 317 316 322 333 333 332 357 23
142 144 150 156 157 156 161 156 154 160 166 176 207 189 191 196 213 230 249 284 284 194 231 267 274 283 316 320 324 323 312 311 312 304 320 324 320 322 335 350 353 1 25
137 152 154 155 161 155 152 154 154 156 161 149 146 184 200 210 219 226 236 214 252 301 275 284 286 270 281 295 317 308 301 304 306 307 298 321 327 315 340 2 22 43 53
140 143 154 150 145 148 148 150 154 156 159 160 178 183 182 174 195 226 229 245 257 252 242 246 266 266 261 288 316 309 305 310 315 308 310 301 310 308 323 337 314 66 51
137 142 139 133 142 150 156 166 165 172 177 189 198 204 202 195 204 207 183 218 244 243 224 224 261 258 263 277 305 318 302 302 306 306 286 298 318 304 313 63 83 79 102
135 137 137 140 146 158 165 168 174 183 191 198 210 195 201 207 208 208 210 222 217 202 189 224 265 268 271 277 306 311 312 305 307 306 302 285 258 263 266 158 133 117 115
134 138 133 120 130 147 152 170 174 179 195 212 213 201 180 208 214 218 222 218 198 191 215 221 253 253 276 291 311 295 312 315 299 296 304 288 248 220 236 201 143 138 150
114 114 134 139 153 151 146 189 220 233 322 213 199 221 235 233 221 222 220 216 199 204 207 218 219 225 259 279 295 315 309 304 309 304 288 271 257 209 212 203 169 164 151
107 97 80 81 74 88 70 47 243 223 228 233 244 243 252 250 241 235 232 220 204 201 209 199 210 229 236 255 280 296 295 321 331 311 278 259 254 221 203 198 181 157 154
80 74 75 73 110 157 202 225 238 235 243 243 241 245 249 254 253 247 232 203 203 199 199 205 219 218 232 248 284 304 335 323 314 320 288 245 246 228 202 194 178 169 172